When you browse on this site, cookies collect data to enhance your experience and personalize the content and advertising you see.
Visit our Privacy Policy to learn more. By continuing to use the site, you agree to this use of cookies and data.
  • In Belgien
  • Länderverzeichnis
  • Für 7 Tage
  • Wassertemperatur
  • Satellitenkarten
  • Wetterkarte
  • Widgets
  • user-avatar
    Anmelden

    Stündliche Wetter Albany

    Heute, 19 Februar, Dienstag

    Zeit Temperatur Niederschläge Wind Luftdruck Luftfeuchtigkeit
    00:00 +15°C° 0 mm 4 m/S 759 mmHg 86%
    01:00 +14°C° 0 mm 4 m/S 759 mmHg 87%
    02:00 +14°C° 0 mm 4 m/S 759 mmHg 88%
    03:00 +14°C° 0 mm 4 m/S 759 mmHg 89%
    04:00 +14°C° 0 mm 3 m/S 759 mmHg 90%
    05:00 +14°C° 0 mm 3 m/S 759 mmHg 91%
    06:00 +16°C° 0 mm 3 m/S 759 mmHg 85%
    07:00 +18°C° 0 mm 3 m/S 760 mmHg 78%
    08:00 +19°C° 0 mm 3 m/S 760 mmHg 72%
    09:00 +21°C° 0 mm 4 m/S 760 mmHg 66%
    10:00 +22°C° 0 mm 4 m/S 760 mmHg 59%
    11:00 +25°C° 0 mm 4 m/S 759 mmHg 53%
    12:00 +25°C° 0 mm 5 m/S 759 mmHg 53%
    13:00 +25°C° 0 mm 5 m/S 759 mmHg 53%
    14:00 +26°C° 0 mm 6 m/S 758 mmHg 54%
    15:00 +23°C° 0 mm 6 m/S 758 mmHg 57%
    16:00 +22°C° 0 mm 6 m/S 758 mmHg 61%
    17:00 +21°C° 0 mm 6 m/S 758 mmHg 65%
    18:00 +20°C° 0 mm 6 m/S 759 mmHg 70%
    19:00 +19°C° 0 mm 6 m/S 759 mmHg 76%
    20:00 +16°C° 0 mm 5 m/S 759 mmHg 82%
    21:00 +16°C° 0 mm 5 m/S 759 mmHg 83%
    22:00 +16°C° 0 mm 5 m/S 760 mmHg 84%
    23:00 +16°C° 0 mm 5 m/S 760 mmHg 85%

    Morgen, 20 Februar, Mittwoch

    Zeit Temperatur Niederschläge Wind Luftdruck Luftfeuchtigkeit
    00:00 +16°C° 0 mm 5 m/S 759 mmHg 85%
    01:00 +16°C° 0 mm 5 m/S 759 mmHg 86%
    02:00 +16°C° 0 mm 5 m/S 759 mmHg 87%
    03:00 +16°C° 0 mm 5 m/S 759 mmHg 88%
    04:00 +16°C° 0 mm 5 m/S 759 mmHg 88%
    05:00 +16°C° 0 mm 5 m/S 758 mmHg 89%
    06:00 +17°C° 0 mm 5 m/S 758 mmHg 84%
    07:00 +19°C° 0 mm 6 m/S 758 mmHg 79%
    08:00 +20°C° 0 mm 6 m/S 758 mmHg 74%
    09:00 +22°C° 0 mm 6 m/S 758 mmHg 70%
    10:00 +23°C° 0 mm 6 m/S 757 mmHg 66%
    11:00 +24°C° 0 mm 6 m/S 757 mmHg 62%
    12:00 +26°C° 0 mm 6 m/S 756 mmHg 58%
    13:00 +28°C° 0 mm 6 m/S 755 mmHg 53%
    14:00 +29°C° 0 mm 6 m/S 755 mmHg 49%
    15:00 +28°C° 0 mm 6 m/S 754 mmHg 52%
    16:00 +27°C° 0 mm 6 m/S 754 mmHg 55%
    17:00 +27°C° 0 mm 7 m/S 753 mmHg 58%
    18:00 +24°C° 0 mm 7 m/S 753 mmHg 67%
    19:00 +22°C° 0 mm 6 m/S 753 mmHg 75%
    20:00 +20°C° 0 mm 6 m/S 753 mmHg 84%
    21:00 +20°C° 0 mm 5 m/S 753 mmHg 86%
    22:00 +20°C° 0 mm 5 m/S 753 mmHg 87%
    23:00 +20°C° 0 mm 4 m/S 753 mmHg 89%

    übermorgen, 21 Februar, Donnerstag

    Zeit Temperatur Niederschläge Wind Luftdruck Luftfeuchtigkeit
    00:00 +20°C° 0 mm 3 m/S 753 mmHg 90%
    01:00 +20°C° 0 mm 3 m/S 752 mmHg 91%
    02:00 +19°C° 0 mm 3 m/S 751 mmHg 92%
    03:00 +19°C° 0 mm 3 m/S 752 mmHg 94%
    04:00 +19°C° 0 mm 3 m/S 752 mmHg 95%
    05:00 +19°C° 0 mm 3 m/S 752 mmHg 96%
    06:00 +20°C° 0 mm 3 m/S 752 mmHg 93%
    07:00 +20°C° 0 mm 4 m/S 753 mmHg 89%
    08:00 +21°C° 0 mm 5 m/S 753 mmHg 86%
    09:00 +22°C° 0 mm 5 m/S 754 mmHg 79%
    10:00 +25°C° 0 mm 5 m/S 754 mmHg 71%
    11:00 +26°C° 0 mm 5 m/S 754 mmHg 63%
    12:00 +26°C° 0 mm 5 m/S 754 mmHg 61%
    13:00 +27°C° 0 mm 6 m/S 754 mmHg 59%
    14:00 +27°C° 0 mm 6 m/S 754 mmHg 57%
    15:00 +26°C° 0 mm 6 m/S 754 mmHg 61%
    16:00 +24°C° 0 mm 6 m/S 754 mmHg 65%
    17:00 +23°C° 0 mm 6 m/S 754 mmHg 69%
    18:00 +21°C° 0 mm 5 m/S 755 mmHg 76%
    19:00 +20°C° 0 mm 4 m/S 755 mmHg 84%
    20:00 +18°C° 0 mm 4 m/S 756 mmHg 91%
    21:00 +18°C° 0 mm 3 m/S 756 mmHg 92%
    22:00 +17°C° 0 mm 3 m/S 756 mmHg 93%
    23:00 +17°C° 0 mm 2 m/S 756 mmHg 93%

    22 Februar, Freitag

    Zeit Temperatur Niederschläge Wind Luftdruck Luftfeuchtigkeit
    00:00 +17°C° 0 mm 2 m/S 756 mmHg 93%
    01:00 +18°C° 0 mm 1 m/S 756 mmHg 94%
    02:00 +16°C° 0 mm 1 m/S 755 mmHg 94%
    03:00 +16°C° 0 mm 1 m/S 755 mmHg 94%
    04:00 +16°C° 0 mm 1 m/S 755 mmHg 95%
    05:00 +16°C° 0 mm 1 m/S 755 mmHg 96%
    06:00 +18°C° 0 mm 1 m/S 756 mmHg 88%
    07:00 +20°C° 0 mm 1 m/S 756 mmHg 81%
    08:00 +22°C° 0 mm 1 m/S 756 mmHg 73%
    09:00 +25°C° 0 mm 1 m/S 756 mmHg 62%
    10:00 +28°C° 0 mm 1 m/S 756 mmHg 52%
    11:00 +31°C° 0 mm 1 m/S 755 mmHg 41%
    12:00 +31°C° 0 mm 2 m/S 755 mmHg 42%
    13:00 +31°C° 0 mm 3 m/S 754 mmHg 42%
    14:00 +32°C° 0 mm 4 m/S 754 mmHg 43%
    15:00 +29°C° 0 mm 4 m/S 753 mmHg 50%
    16:00 +27°C° 0 mm 4 m/S 753 mmHg 57%
    17:00 +25°C° 0 mm 4 m/S 753 mmHg 64%
    18:00 +22°C° 0 mm 3 m/S 754 mmHg 69%
    19:00 +20°C° 0 mm 2 m/S 755 mmHg 75%
    20:00 +20°C° 0 mm 1 m/S 755 mmHg 81%
    21:00 +19°C° 0 mm 1 m/S 756 mmHg 82%
    22:00 +19°C° 0 mm 1 m/S 756 mmHg 83%
    23:00 +19°C° 0 mm 1 m/S 756 mmHg 83%

    23 Februar, Samstag

    Zeit Temperatur Niederschläge Wind Luftdruck Luftfeuchtigkeit
    00:00 +19°C° 0 mm 1 m/S 756 mmHg 83%
    01:00 +18°C° 0 mm 1 m/S 756 mmHg 82%
    02:00 +18°C° 0 mm 1 m/S 755 mmHg 81%
    03:00 +18°C° 0 mm 1 m/S 755 mmHg 82%
    04:00 +17°C° 0 mm 2 m/S 755 mmHg 83%
    05:00 +17°C° 0 mm 2 m/S 756 mmHg 83%
    06:00 +19°C° 0 mm 2 m/S 756 mmHg 77%
    07:00 +20°C° 0 mm 2 m/S 756 mmHg 71%
    08:00 +22°C° 0 mm 3 m/S 756 mmHg 65%
    09:00 +25°C° 0 mm 3 m/S 756 mmHg 56%
    10:00 +28°C° 0 mm 2 m/S 756 mmHg 48%
    11:00 +30°C° 0 mm 2 m/S 756 mmHg 39%
    12:00 +31°C° 0 mm 3 m/S 756 mmHg 39%
    13:00 +32°C° 0 mm 4 m/S 755 mmHg 39%
    14:00 +33°C° 0 mm 5 m/S 755 mmHg 39%
    15:00 +30°C° 0 mm 4 m/S 755 mmHg 47%
    16:00 +28°C° 0 mm 4 m/S 755 mmHg 56%
    17:00 +26°C° 0 mm 4 m/S 755 mmHg 64%
    18:00 +24°C° 0 mm 3 m/S 756 mmHg 72%
    19:00 +23°C° 0 mm 2 m/S 757 mmHg 79%
    20:00 +20°C° 0 mm 2 m/S 757 mmHg 86%
    21:00 +21°C° 0 mm 1 m/S 757 mmHg 88%
    22:00 +20°C° 0 mm 1 m/S 758 mmHg 90%
    23:00 +20°C° 0 mm 1 m/S 758 mmHg 92%

    24 Februar, Sonntag

    Zeit Temperatur Niederschläge Wind Luftdruck Luftfeuchtigkeit
    00:00 +20°C° 0 mm 1 m/S 758 mmHg 92%
    01:00 +20°C° 0 mm 1 m/S 758 mmHg 92%
    02:00 +19°C° 0 mm 2 m/S 757 mmHg 91%
    03:00 +19°C° 0 mm 2 m/S 758 mmHg 91%
    04:00 +19°C° 0 mm 2 m/S 758 mmHg 90%
    05:00 +19°C° 0 mm 2 m/S 758 mmHg 89%
    06:00 +20°C° 0 mm 2 m/S 758 mmHg 82%
    07:00 +23°C° 0 mm 2 m/S 759 mmHg 74%
    08:00 +24°C° 0 mm 3 m/S 759 mmHg 67%
    09:00 +25°C° 0 mm 3 m/S 759 mmHg 63%
    10:00 +27°C° 0 mm 3 m/S 759 mmHg 58%
    11:00 +28°C° 0 mm 3 m/S 759 mmHg 54%
    12:00 +27°C° 0 mm 4 m/S 758 mmHg 56%
    13:00 +27°C° 0 mm 5 m/S 758 mmHg 57%
    14:00 +27°C° 0 mm 5 m/S 758 mmHg 59%
    15:00 +25°C° 0 mm 5 m/S 758 mmHg 60%
    16:00 +23°C° 0 mm 5 m/S 758 mmHg 61%
    17:00 +22°C° 0 mm 5 m/S 758 mmHg 63%
    18:00 +21°C° 0 mm 4 m/S 759 mmHg 68%
    19:00 +20°C° 0 mm 4 m/S 760 mmHg 74%
    20:00 +19°C° 0 mm 3 m/S 760 mmHg 79%
    21:00 +19°C° 0 mm 3 m/S 760 mmHg 81%
    22:00 +19°C° 0 mm 3 m/S 760 mmHg 82%
    23:00 +18°C° 0 mm 3 m/S 760 mmHg 84%
    Mehr zeigen